"Sample Date","Sample Time","Sensor Name","Sample Value","Units","Flow Rate","Sample Interval","Sample Volume","Laser Status","Number Channels","Micron Size 0","Counts/Channel 0","Micron Size 1","Counts/Channel 1","Micron Size 2","Counts/Channel 2","Micron Size 3","Counts/Channel 3","Micron Size 4","Counts/Channel 4","Micron Size 5","Counts/Channel 5","Micron Size 6","Counts/Channel 6","Micron Size 7","Counts/Channel 7","Micron Size 8","Counts/Channel 8","Micron Size 9","Counts/Channel 9","Micron Size 10","Counts/Channel 10","Micron Size 11","Counts/Channel 11","Micron Size 12","Counts/Channel 12","Micron Size 13","Counts/Channel 13","Micron Size 14","Counts/Channel 14","Micron Size 15","Counts/Channel 15","Micron Size 16","Counts/Channel 16","Micron Size 17","Counts/Channel 17","Micron Size 18","Counts/Channel 18","Micron Size 19","Counts/Channel 19","Micron Size 20","Counts/Channel 20","Micron Size 21","Counts/Channel 21","Micron Size 22","Counts/Channel 22","Micron Size 23","Counts/Channel 23","Micron Size 24","Counts/Channel 24","Micron Size 25","Counts/Channel 25","Micron Size 26","Counts/Channel 26","Micron Size 27","Counts/Channel 27","Micron Size 28","Counts/Channel 28","Micron Size 29","Counts/Channel 29","Micron Size 30","Counts/Channel 30","Micron Size 31","Counts/Channel 31"
"07/03/06","10:00:02","AMMA06",73445.000,"cc",28325.397,6.00,2832.540,1,6,0.100,36797.000,0.200,27995.000,0.300,5639.000,0.500,1824.000,1.000,1189.000,5.000,1.000
"07/03/06","10:00:08","AMMA06",73135.000,"cc",28274.838,6.00,2827.484,1,6,0.100,36406.000,0.200,28075.000,0.300,5683.000,0.500,1817.000,1.000,1153.000,5.000,1.000
"07/03/06","10:00:14","AMMA06",73441.000,"cc",28320.191,6.00,2832.019,1,6,0.100,36709.000,0.200,27922.000,0.300,5730.000,0.500,1894.000,1.000,1185.000,5.000,1.000
"07/03/06","10:00:20","AMMA06",73156.000,"cc",28396.781,6.00,2839.678,1,6,0.100,36400.000,0.200,27945.000,0.300,5776.000,0.500,1811.000,1.000,1222.000,5.000,2.000
"07/03/06","10:00:26","AMMA06",73116.000,"cc",28318.490,6.00,2831.849,1,6,0.100,36247.000,0.200,28145.000,0.300,5677.000,0.500,1843.000,1.000,1203.000,5.000,1.000
"07/03/06","10:00:32","AMMA06",73275.000,"cc",28294.232,6.00,2829.423,1,6,0.100,36346.000,0.200,28154.000,0.300,5773.000,0.500,1828.000,1.000,1172.000,5.000,2.000
"07/03/06","10:00:38","AMMA06",73262.000,"cc",28298.330,6.00,2829.833,1,6,0.100,36600.000,0.200,27864.000,0.300,5776.000,0.500,1879.000,1.000,1143.000,5.000,0
"07/03/06","10:00:44","AMMA06",73432.000,"cc",28305.977,6.00,2830.598,1,6,0.100,36488.000,0.200,28202.000,0.300,5753.000,0.500,1807.000,1.000,1178.000,5.000,4.000
"07/03/06","10:00:50","AMMA06",72880.000,"cc",28335.395,6.00,2833.540,1,6,0.100,36274.000,0.200,27844.000,0.300,5734.000,0.500,1887.000,1.000,1141.000,5.000,0
"07/03/06","10:00:56","AMMA06",73146.000,"cc",28323.887,6.00,2832.389,1,6,0.100,36572.000,0.200,27724.000,0.300,5836.000,0.500,1832.000,1.000,1182.000,5.000,0
"07/03/06","10:01:02","AMMA06",73364.000,"cc",28286.139,6.00,2828.614,1,6,0.100,36557.000,0.200,28121.000,0.300,5663.000,0.500,1876.000,1.000,1146.000,5.000,1.000
"07/03/06","10:01:08","AMMA06",72717.000,"cc",28342.602,6.00,2834.260,1,6,0.100,36228.000,0.200,27787.000,0.300,5753.000,0.500,1789.000,1.000,1159.000,5.000,1.000
"07/03/06","10:01:14","AMMA06",72590.000,"cc",28357.779,6.00,2835.778,1,6,0.100,35975.000,0.200,27917.000,0.300,5674.000,0.500,1876.000,1.000,1148.000,5.000,0
"07/03/06","10:01:20","AMMA06",73218.000,"cc",28291.539,6.00,2829.154,1,6,0.100,36641.000,0.200,27924.000,0.300,5731.000,0.500,1792.000,1.000,1128.000,5.000,2.000
"07/03/06","10:01:26","AMMA06",72600.000,"cc",28326.977,6.00,2832.698,1,6,0.100,35931.000,0.200,27910.000,0.300,5722.000,0.500,1844.000,1.000,1191.000,5.000,2.000
"07/03/06","10:01:32","AMMA06",72981.000,"cc",28346.065,6.00,2834.607,1,6,0.100,36250.000,0.200,27730.000,0.300,5761.000,0.500,1982.000,1.000,1258.000,5.000,0
"07/03/06","10:01:38","AMMA06",72974.000,"cc",28274.256,6.00,2827.426,1,6,0.100,36207.000,0.200,28085.000,0.300,5637.000,0.500,1878.000,1.000,1165.000,5.000,2.000
"07/03/06","10:01:44","AMMA06",73391.000,"cc",28292.225,6.00,2829.223,1,6,0.100,36753.000,0.200,27957.000,0.300,5658.000,0.500,1816.000,1.000,1205.000,5.000,2.000
"07/03/06","10:01:50","AMMA06",72742.000,"cc",28341.764,6.00,2834.177,1,6,0.100,36259.000,0.200,27784.000,0.300,5702.000,0.500,1897.000,1.000,1098.000,5.000,2.000
"07/03/06","10:01:56","AMMA06",72908.000,"cc",28352.270,6.00,2835.227,1,6,0.100,36267.000,0.200,27881.000,0.300,5676.000,0.500,1905.000,1.000,1179.000,5.000,0
"07/03/06","10:02:02","AMMA06",72967.000,"cc",28318.920,6.00,2831.892,1,6,0.100,36432.000,0.200,27795.000,0.300,5663.000,0.500,1831.000,1.000,1246.000,5.000,0
"07/03/06","10:02:08","AMMA06",72132.000,"cc",28298.168,6.00,2829.817,1,6,0.100,35665.000,0.200,27826.000,0.300,5527.000,0.500,1867.000,1.000,1247.000,5.000,0
"07/03/06","10:02:14","AMMA06",72601.000,"cc",28289.693,6.00,2828.970,1,6,0.100,36342.000,0.200,27797.000,0.300,5472.000,0.500,1880.000,1.000,1110.000,5.000,0
"07/03/06","10:02:20","AMMA06",72182.000,"cc",28365.531,6.00,2836.553,1,6,0.100,36098.000,0.200,27547.000,0.300,5495.000,0.500,1858.000,1.000,1183.000,5.000,1.000
"07/03/06","10:02:26","AMMA06",72878.000,"cc",28304.369,6.00,2830.437,1,6,0.100,36345.000,0.200,27793.000,0.300,5667.000,0.500,1885.000,1.000,1187.000,5.000,1.000
"07/03/06","10:02:32","AMMA06",73129.000,"cc",28294.256,6.00,2829.426,1,6,0.100,36270.000,0.200,28040.000,0.300,5687.000,0.500,1902.000,1.000,1228.000,5.000,2.000
"07/03/06","10:02:38","AMMA06",72521.000,"cc",28349.527,6.00,2834.953,1,6,0.100,36296.000,0.200,27639.000,0.300,5608.000,0.500,1839.000,1.000,1139.000,5.000,0
"07/03/06","10:02:44","AMMA06",72932.000,"cc",28315.068,6.00,2831.507,1,6,0.100,36556.000,0.200,27674.000,0.300,5640.000,0.500,1857.000,1.000,1205.000,5.000,0
"07/03/06","10:02:50","AMMA06",72787.000,"cc",28285.316,6.00,2828.532,1,6,0.100,36648.000,0.200,27755.000,0.300,5414.000,0.500,1782.000,1.000,1187.000,5.000,1.000
"07/03/06","10:02:56","AMMA06",72510.000,"cc",28307.731,6.00,2830.773,1,6,0.100,36428.000,0.200,27628.000,0.300,5463.000,0.500,1801.000,1.000,1190.000,5.000,0
"07/03/06","10:03:02","AMMA06",72375.000,"cc",28290.709,6.00,2829.071,1,6,0.100,36706.000,0.200,27178.000,0.300,5503.000,0.500,1851.000,1.000,1136.000,5.000,1.000
"07/03/06","10:03:08","AMMA06",72002.000,"cc",28402.002,6.00,2840.200,1,6,0.100,36196.000,0.200,27302.000,0.300,5512.000,0.500,1872.000,1.000,1117.000,5.000,3.000
"07/03/06","10:03:14","AMMA06",72462.000,"cc",28343.592,6.00,2834.359,1,6,0.100,36363.000,0.200,27563.000,0.300,5564.000,0.500,1819.000,1.000,1153.000,5.000,0
"07/03/06","10:03:20","AMMA06",72245.000,"cc",28287.309,6.00,2828.731,1,6,0.100,36255.000,0.200,27378.000,0.300,5579.000,0.500,1824.000,1.000,1207.000,5.000,2.000
"07/03/06","10:03:26","AMMA06",72501.000,"cc",28289.215,6.00,2828.922,1,6,0.100,36456.000,0.200,27509.000,0.300,5463.000,0.500,1858.000,1.000,1215.000,5.000,0
"07/03/06","10:03:32","AMMA06",72166.000,"cc",28331.283,6.00,2833.128,1,6,0.100,36187.000,0.200,27473.000,0.300,5618.000,0.500,1821.000,1.000,1067.000,5.000,0
"07/03/06","10:03:38","AMMA06",72214.000,"cc",28319.477,6.00,2831.948,1,6,0.100,36096.000,0.200,27674.000,0.300,5491.000,0.500,1788.000,1.000,1165.000,5.000,0
"07/03/06","10:03:44","AMMA06",72530.000,"cc",28318.969,6.00,2831.897,1,6,0.100,36354.000,0.200,27560.000,0.300,5569.000,0.500,1898.000,1.000,1148.000,5.000,1.000
"07/03/06","10:03:50","AMMA06",71927.000,"cc",28322.311,6.00,2832.231,1,6,0.100,36274.000,0.200,27098.000,0.300,5448.000,0.500,1889.000,1.000,1218.000,5.000,0
"07/03/06","10:03:56","AMMA06",72027.000,"cc",28287.273,6.00,2828.728,1,6,0.100,36181.000,0.200,27404.000,0.300,5434.000,0.500,1852.000,1.000,1154.000,5.000,2.000
"07/03/06","10:04:02","AMMA06",72107.000,"cc",28288.080,6.00,2828.808,1,6,0.100,36215.000,0.200,27275.000,0.300,5639.000,0.500,1807.000,1.000,1169.000,5.000,2.000
"07/03/06","10:04:08","AMMA06",72344.000,"cc",28356.674,6.00,2835.668,1,6,0.100,36407.000,0.200,27471.000,0.300,5472.000,0.500,1803.000,1.000,1188.000,5.000,3.000
"07/03/06","10:04:14","AMMA06",72353.000,"cc",28347.006,6.00,2834.701,1,6,0.100,36101.000,0.200,27705.000,0.300,5464.000,0.500,1887.000,1.000,1193.000,5.000,3.000
"07/03/06","10:04:20","AMMA06",72211.000,"cc",28303.377,6.00,2830.338,1,6,0.100,36296.000,0.200,27416.000,0.300,5407.000,0.500,1899.000,1.000,1192.000,5.000,1.000
"07/03/06","10:04:26","AMMA06",71923.000,"cc",28302.559,6.00,2830.256,1,6,0.100,36372.000,0.200,27042.000,0.300,5449.000,0.500,1828.000,1.000,1232.000,5.000,0
"07/03/06","10:04:32","AMMA06",71925.000,"cc",28299.234,6.00,2829.924,1,6,0.100,35906.000,0.200,27433.000,0.300,5572.000,0.500,1789.000,1.000,1224.000,5.000,1.000
"07/03/06","10:04:38","AMMA06",71624.000,"cc",28328.856,6.00,2832.886,1,6,0.100,35595.000,0.200,27277.000,0.300,5642.000,0.500,1918.000,1.000,1190.000,5.000,2.000
"07/03/06","10:04:44","AMMA06",72419.000,"cc",28342.486,6.00,2834.249,1,6,0.100,36146.000,0.200,27674.000,0.300,5594.000,0.500,1862.000,1.000,1142.000,5.000,1.000
"07/03/06","10:04:50","AMMA06",72167.000,"cc",28275.486,6.00,2827.549,1,6,0.100,36034.000,0.200,27664.000,0.300,5447.000,0.500,1833.000,1.000,1189.000,5.000,0
"07/03/06","10:04:56","AMMA06",72296.000,"cc",28302.303,6.00,2830.231,1,6,0.100,35921.000,0.200,27808.000,0.300,5544.000,0.500,1856.000,1.000,1167.000,5.000,0
"07/03/06","10:05:02","AMMA06",72398.000,"cc",28319.482,6.00,2831.949,1,6,0.100,35972.000,0.200,27690.000,0.300,5683.000,0.500,1879.000,1.000,1172.000,5.000,2.000
"07/03/06","10:05:08","AMMA06",72601.000,"cc",28311.514,6.00,2831.152,1,6,0.100,36315.000,0.200,27601.000,0.300,5711.000,0.500,1781.000,1.000,1193.000,5.000,0
"07/03/06","10:05:14","AMMA06",72475.000,"cc",28336.953,6.00,2833.696,1,6,0.100,35859.000,0.200,27917.000,0.300,5707.000,0.500,1837.000,1.000,1155.000,5.000,0
"07/03/06","10:05:20","AMMA06",72321.000,"cc",28321.469,6.00,2832.147,1,6,0.100,35907.000,0.200,27778.000,0.300,5559.000,0.500,1902.000,1.000,1175.000,5.000,0
"07/03/06","10:05:26","AMMA06",72111.000,"cc",28339.721,6.00,2833.972,1,6,0.100,35823.000,0.200,27688.000,0.300,5548.000,0.500,1839.000,1.000,1212.000,5.000,1.000
"07/03/06","10:05:32","AMMA06",72762.000,"cc",28284.174,6.00,2828.418,1,6,0.100,36008.000,0.200,27921.000,0.300,5736.000,0.500,1850.000,1.000,1245.000,5.000,2.000
"07/03/06","10:05:38","AMMA06",72795.000,"cc",28306.668,6.00,2830.667,1,6,0.100,36198.000,0.200,27829.000,0.300,5684.000,0.500,1882.000,1.000,1202.000,5.000,0
"07/03/06","10:05:44","AMMA06",72301.000,"cc",28292.666,6.00,2829.267,1,6,0.100,35804.000,0.200,27735.000,0.300,5686.000,0.500,1830.000,1.000,1244.000,5.000,2.000
"07/03/06","10:05:50","AMMA06",72932.000,"cc",28271.238,6.00,2827.124,1,6,0.100,36069.000,0.200,28010.000,0.300,5785.000,0.500,1829.000,1.000,1239.000,5.000,0
"07/03/06","10:05:56","AMMA06",72333.000,"cc",28384.283,6.00,2838.429,1,6,0.100,35791.000,0.200,27702.000,0.300,5781.000,0.500,1871.000,1.000,1188.000,5.000,0
"07/03/06","10:06:02","AMMA06",72370.000,"cc",28333.301,6.00,2833.330,1,6,0.100,35618.000,0.200,27953.000,0.300,5801.000,0.500,1850.000,1.000,1148.000,5.000,0
"07/03/06","10:06:08","AMMA06",72527.000,"cc",28285.123,6.00,2828.513,1,6,0.100,35662.000,0.200,28053.000,0.300,5875.000,0.500,1776.000,1.000,1160.000,5.000,1.000
"07/03/06","10:06:14","AMMA06",72491.000,"cc",28311.219,6.00,2831.122,1,6,0.100,35722.000,0.200,27982.000,0.300,5810.000,0.500,1826.000,1.000,1150.000,5.000,1.000
"07/03/06","10:06:20","AMMA06",72444.000,"cc",28285.438,6.00,2828.544,1,6,0.100,35522.000,0.200,28046.000,0.300,5832.000,0.500,1860.000,1.000,1184.000,5.000,0
"07/03/06","10:06:26","AMMA06",72012.000,"cc",28384.438,6.00,2838.444,1,6,0.100,35499.000,0.200,27748.000,0.300,5741.000,0.500,1840.000,1.000,1184.000,5.000,0
"07/03/06","10:06:32","AMMA06",72385.000,"cc",28268.473,6.00,2826.847,1,6,0.100,35817.000,0.200,27957.000,0.300,5594.000,0.500,1827.000,1.000,1189.000,5.000,1.000
"07/03/06","10:06:38","AMMA06",72474.000,"cc",28272.711,6.00,2827.271,1,6,0.100,35928.000,0.200,27748.000,0.300,5780.000,0.500,1863.000,1.000,1152.000,5.000,3.000
"07/03/06","10:06:44","AMMA06",72520.000,"cc",28378.744,6.00,2837.875,1,6,0.100,36200.000,0.200,27634.000,0.300,5596.000,0.500,1918.000,1.000,1170.000,5.000,2.000
"07/03/06","10:06:50","AMMA06",71810.000,"cc",28341.797,6.00,2834.180,1,6,0.100,35381.000,0.200,27783.000,0.300,5675.000,0.500,1794.000,1.000,1177.000,5.000,0
"07/03/06","10:06:56","AMMA06",72156.000,"cc",28302.301,6.00,2830.230,1,6,0.100,35510.000,0.200,27808.000,0.300,5766.000,0.500,1841.000,1.000,1230.000,5.000,1.000
"07/03/06","10:07:02","AMMA06",72334.000,"cc",28312.436,6.00,2831.244,1,6,0.100,35786.000,0.200,27812.000,0.300,5741.000,0.500,1818.000,1.000,1175.000,5.000,2.000
"07/03/06","10:07:08","AMMA06",71834.000,"cc",28318.238,6.00,2831.824,1,6,0.100,35024.000,0.200,28253.000,0.300,5499.000,0.500,1889.000,1.000,1167.000,5.000,2.000
"07/03/06","10:07:14","AMMA06",71761.000,"cc",28356.885,6.00,2835.689,1,6,0.100,35444.000,0.200,27708.000,0.300,5596.000,0.500,1829.000,1.000,1182.000,5.000,2.000
"07/03/06","10:07:20","AMMA06",72386.000,"cc",28284.551,6.00,2828.455,1,6,0.100,35756.000,0.200,28052.000,0.300,5560.000,0.500,1827.000,1.000,1190.000,5.000,1.000
"07/03/06","10:07:26","AMMA06",72381.000,"cc",28278.379,6.00,2827.838,1,6,0.100,35762.000,0.200,27984.000,0.300,5673.000,0.500,1861.000,1.000,1099.000,5.000,2.000
"07/03/06","10:07:32","AMMA06",71828.000,"cc",28345.840,6.00,2834.584,1,6,0.100,35885.000,0.200,27464.000,0.300,5534.000,0.500,1784.000,1.000,1160.000,5.000,1.000
"07/03/06","10:07:38","AMMA06",72097.000,"cc",28279.957,6.00,2827.996,1,6,0.100,36025.000,0.200,27441.000,0.300,5622.000,0.500,1886.000,1.000,1122.000,5.000,1.000
"07/03/06","10:07:44","AMMA06",71517.000,"cc",28325.449,6.00,2832.545,1,6,0.100,35466.000,0.200,27451.000,0.300,5542.000,0.500,1851.000,1.000,1206.000,5.000,1.000
"07/03/06","10:07:50","AMMA06",71947.000,"cc",28359.584,6.00,2835.959,1,6,0.100,35922.000,0.200,27476.000,0.300,5526.000,0.500,1847.000,1.000,1174.000,5.000,2.000
"07/03/06","10:07:56","AMMA06",72450.000,"cc",28309.229,6.00,2830.923,1,6,0.100,36248.000,0.200,27502.000,0.300,5635.000,0.500,1855.000,1.000,1209.000,5.000,1.000
"07/03/06","10:08:02","AMMA06",71921.000,"cc",28323.447,6.00,2832.345,1,6,0.100,35879.000,0.200,27509.000,0.300,5480.000,0.500,1889.000,1.000,1162.000,5.000,2.000
"07/03/06","10:08:08","AMMA06",71833.000,"cc",28336.518,6.00,2833.652,1,6,0.100,36056.000,0.200,27309.000,0.300,5575.000,0.500,1698.000,1.000,1194.000,5.000,1.000
"07/03/06","10:08:14","AMMA06",72250.000,"cc",28293.783,6.00,2829.378,1,6,0.100,36386.000,0.200,27300.000,0.300,5506.000,0.500,1837.000,1.000,1218.000,5.000,3.000
"07/03/06","10:08:20","AMMA06",72090.000,"cc",28290.572,6.00,2829.057,1,6,0.100,36089.000,0.200,27368.000,0.300,5499.000,0.500,1872.000,1.000,1262.000,5.000,0
"07/03/06","10:08:26","AMMA06",71715.000,"cc",28286.973,6.00,2828.698,1,6,0.100,35703.000,0.200,27563.000,0.300,5434.000,0.500,1866.000,1.000,1147.000,5.000,2.000
"07/03/06","10:08:32","AMMA06",71712.000,"cc",28314.039,6.00,2831.404,1,6,0.100,35899.000,0.200,27318.000,0.300,5438.000,0.500,1864.000,1.000,1192.000,5.000,1.000
"07/03/06","10:08:38","AMMA06",71958.000,"cc",28294.705,6.00,2829.471,1,6,0.100,36144.000,0.200,27366.000,0.300,5371.000,0.500,1858.000,1.000,1217.000,5.000,2.000
"07/03/06","10:08:44","AMMA06",72424.000,"cc",28277.606,6.00,2827.761,1,6,0.100,35988.000,0.200,27830.000,0.300,5488.000,0.500,1971.000,1.000,1147.000,5.000,0
"07/03/06","10:08:50","AMMA06",71430.000,"cc",28368.965,6.00,2836.897,1,6,0.100,35417.000,0.200,27547.000,0.300,5445.000,0.500,1824.000,1.000,1195.000,5.000,2.000
"07/03/06","10:08:56","AMMA06",72010.000,"cc",28396.986,6.00,2839.699,1,6,0.100,36203.000,0.200,27360.000,0.300,5391.000,0.500,1876.000,1.000,1178.000,5.000,2.000
"07/03/06","10:09:02","AMMA06",71814.000,"cc",28260.615,6.00,2826.062,1,6,0.100,35886.000,0.200,27393.000,0.300,5567.000,0.500,1811.000,1.000,1155.000,5.000,2.000
"07/03/06","10:09:08","AMMA06",71876.000,"cc",28311.039,6.00,2831.104,1,6,0.100,36021.000,0.200,27442.000,0.300,5438.000,0.500,1793.000,1.000,1181.000,5.000,1.000
"07/03/06","10:09:14","AMMA06",71620.000,"cc",28335.971,6.00,2833.597,1,6,0.100,35722.000,0.200,27375.000,0.300,5581.000,0.500,1840.000,1.000,1102.000,5.000,0
"07/03/06","10:09:20","AMMA06",71736.000,"cc",28301.092,6.00,2830.109,1,6,0.100,35941.000,0.200,27397.000,0.300,5329.000,0.500,1850.000,1.000,1218.000,5.000,1.000
"07/03/06","10:09:26","AMMA06",71757.000,"cc",28307.186,6.00,2830.719,1,6,0.100,36010.000,0.200,27386.000,0.300,5339.000,0.500,1827.000,1.000,1195.000,5.000,0
"07/03/06","10:09:32","AMMA06",71257.000,"cc",28300.879,6.00,2830.088,1,6,0.100,35746.000,0.200,27038.000,0.300,5355.000,0.500,1938.000,1.000,1179.000,5.000,1.000
"07/03/06","10:09:38","AMMA06",71624.000,"cc",28302.039,6.00,2830.204,1,6,0.100,35856.000,0.200,27390.000,0.300,5403.000,0.500,1882.000,1.000,1091.000,5.000,2.000
"07/03/06","10:09:44","AMMA06",71642.000,"cc",28299.307,6.00,2829.931,1,6,0.100,35991.000,0.200,27259.000,0.300,5401.000,0.500,1854.000,1.000,1136.000,5.000,1.000
"07/03/06","10:09:50","AMMA06",71643.000,"cc",28317.012,6.00,2831.701,1,6,0.100,35669.000,0.200,27573.000,0.300,5385.000,0.500,1874.000,1.000,1142.000,5.000,0
"07/03/06","10:09:56","AMMA06",71863.000,"cc",28312.914,6.00,2831.292,1,6,0.100,36305.000,0.200,27320.000,0.300,5323.000,0.500,1749.000,1.000,1166.000,5.000,0
"07/03/06","10:10:02","AMMA06",71810.000,"cc",28312.846,6.00,2831.285,1,6,0.100,36281.000,0.200,27140.000,0.300,5360.000,0.500,1816.000,1.000,1211.000,5.000,2.000
"07/03/06","10:10:08","AMMA06",71957.000,"cc",28353.639,6.00,2835.364,1,6,0.100,36066.000,0.200,27524.000,0.300,5333.000,0.500,1864.000,1.000,1170.000,5.000,0
"07/03/06","10:10:14","AMMA06",71354.000,"cc",28350.619,6.00,2835.062,1,6,0.100,35531.000,0.200,27363.000,0.300,5445.000,0.500,1816.000,1.000,1199.000,5.000,0
"07/03/06","10:10:20","AMMA06",71767.000,"cc",28378.121,6.00,2837.812,1,6,0.100,35852.000,0.200,27405.000,0.300,5556.000,0.500,1816.000,1.000,1134.000,5.000,4.000
"07/03/06","10:10:26","AMMA06",71927.000,"cc",28331.988,6.00,2833.199,1,6,0.100,35835.000,0.200,27598.000,0.300,5425.000,0.500,1858.000,1.000,1211.000,5.000,0
"07/03/06","10:10:32","AMMA06",71965.000,"cc",28240.145,6.00,2824.015,1,6,0.100,35981.000,0.200,27495.000,0.300,5552.000,0.500,1805.000,1.000,1132.000,5.000,0
"07/03/06","10:10:38","AMMA06",71425.000,"cc",28323.902,6.00,2832.390,1,6,0.100,35550.000,0.200,27453.000,0.300,5373.000,0.500,1872.000,1.000,1175.000,5.000,2.000
"07/03/06","10:10:44","AMMA06",71820.000,"cc",28339.664,6.00,2833.967,1,6,0.100,35760.000,0.200,27550.000,0.300,5422.000,0.500,1929.000,1.000,1158.000,5.000,1.000
"07/03/06","10:10:50","AMMA06",71813.000,"cc",28308.344,6.00,2830.835,1,6,0.100,35949.000,0.200,27356.000,0.300,5574.000,0.500,1822.000,1.000,1110.000,5.000,2.000
"07/03/06","10:10:56","AMMA06",71546.000,"cc",28346.783,6.00,2834.679,1,6,0.100,35774.000,0.200,27233.000,0.300,5542.000,0.500,1783.000,1.000,1214.000,5.000,0
"07/03/06","10:11:02","AMMA06",71332.000,"cc",28333.602,6.00,2833.360,1,6,0.100,35247.000,0.200,27499.000,0.300,5523.000,0.500,1844.000,1.000,1218.000,5.000,1.000
"07/03/06","10:11:08","AMMA06",72164.000,"cc",28316.504,6.00,2831.651,1,6,0.100,35912.000,0.200,27700.000,0.300,5568.000,0.500,1849.000,1.000,1134.000,5.000,1.000
"07/03/06","10:11:14","AMMA06",71866.000,"cc",28225.658,6.00,2822.566,1,6,0.100,35470.000,0.200,27812.000,0.300,5591.000,0.500,1809.000,1.000,1184.000,5.000,0
"07/03/06","10:11:20","AMMA06",72198.000,"cc",28318.467,6.00,2831.847,1,6,0.100,35640.000,0.200,27975.000,0.300,5561.000,0.500,1852.000,1.000,1169.000,5.000,1.000
"07/03/06","10:11:26","AMMA06",72054.000,"cc",28346.391,6.00,2834.639,1,6,0.100,35961.000,0.200,27475.000,0.300,5583.000,0.500,1863.000,1.000,1171.000,5.000,1.000
"07/03/06","10:11:32","AMMA06",71939.000,"cc",28345.072,6.00,2834.507,1,6,0.100,35922.000,0.200,27521.000,0.300,5488.000,0.500,1858.000,1.000,1148.000,5.000,2.000
"07/03/06","10:11:38","AMMA06",71997.000,"cc",28331.010,6.00,2833.101,1,6,0.100,35853.000,0.200,27513.000,0.300,5600.000,0.500,1817.000,1.000,1214.000,5.000,0
"07/03/06","10:11:44","AMMA06",72280.000,"cc",28275.565,6.00,2827.557,1,6,0.100,36026.000,0.200,27532.000,0.300,5644.000,0.500,1858.000,1.000,1220.000,5.000,0
"07/03/06","10:11:50","AMMA06",71626.000,"cc",28316.498,6.00,2831.650,1,6,0.100,35408.000,0.200,27577.000,0.300,5668.000,0.500,1795.000,1.000,1178.000,5.000,0
"07/03/06","10:11:56","AMMA06",71707.000,"cc",28354.389,6.00,2835.439,1,6,0.100,35687.000,0.200,27453.000,0.300,5495.000,0.500,1863.000,1.000,1207.000,5.000,2.000
"07/03/06","10:12:02","AMMA06",71811.000,"cc",28342.865,6.00,2834.287,1,6,0.100,35607.000,0.200,27584.000,0.300,5570.000,0.500,1846.000,1.000,1202.000,5.000,2.000
"07/03/06","10:12:08","AMMA06",71573.000,"cc",28254.234,6.00,2825.424,1,6,0.100,35743.000,0.200,27353.000,0.300,5484.000,0.500,1852.000,1.000,1140.000,5.000,1.000
"07/03/06","10:12:14","AMMA06",71956.000,"cc",28298.002,6.00,2829.800,1,6,0.100,36218.000,0.200,27315.000,0.300,5424.000,0.500,1830.000,1.000,1168.000,5.000,1.000
"07/03/06","10:12:20","AMMA06",72071.000,"cc",28354.340,6.00,2835.434,1,6,0.100,35969.000,0.200,27511.000,0.300,5545.000,0.500,1852.000,1.000,1194.000,5.000,0
"07/03/06","10:12:26","AMMA06",72129.000,"cc",28302.840,6.00,2830.284,1,6,0.100,35933.000,0.200,27585.000,0.300,5614.000,0.500,1851.000,1.000,1146.000,5.000,0
"07/03/06","10:12:32","AMMA06",71596.000,"cc",28304.561,6.00,2830.456,1,6,0.100,35844.000,0.200,27331.000,0.300,5391.000,0.500,1910.000,1.000,1120.000,5.000,0
"07/03/06","10:12:38","AMMA06",71930.000,"cc",28381.553,6.00,2838.156,1,6,0.100,35812.000,0.200,27641.000,0.300,5612.000,0.500,1721.000,1.000,1143.000,5.000,1.000
"07/03/06","10:12:44","AMMA06",71902.000,"cc",28253.522,6.00,2825.352,1,6,0.100,35844.000,0.200,27486.000,0.300,5556.000,0.500,1881.000,1.000,1134.000,5.000,1.000
"07/03/06","10:12:50","AMMA06",71777.000,"cc",28351.615,6.00,2835.162,1,6,0.100,35695.000,0.200,27462.000,0.300,5631.000,0.500,1860.000,1.000,1128.000,5.000,1.000
"07/03/06","10:12:56","AMMA06",71845.000,"cc",28337.363,6.00,2833.737,1,6,0.100,35756.000,0.200,27610.000,0.300,5418.000,0.500,1878.000,1.000,1183.000,5.000,0
"07/03/06","10:13:02","AMMA06",71908.000,"cc",28291.498,6.00,2829.150,1,6,0.100,35840.000,0.200,27405.000,0.300,5523.000,0.500,1948.000,1.000,1190.000,5.000,2.000
"07/03/06","10:13:08","AMMA06",71773.000,"cc",28321.621,6.00,2832.162,1,6,0.100,35969.000,0.200,27114.000,0.300,5611.000,0.500,1855.000,1.000,1222.000,5.000,2.000
"07/03/06","10:13:14","AMMA06",71717.000,"cc",28298.559,6.00,2829.856,1,6,0.100,35547.000,0.200,27576.000,0.300,5512.000,0.500,1901.000,1.000,1180.000,5.000,1.000
"07/03/06","10:13:20","AMMA06",71650.000,"cc",28345.199,6.00,2834.520,1,6,0.100,35798.000,0.200,27406.000,0.300,5507.000,0.500,1833.000,1.000,1105.000,5.000,1.000
"07/03/06","10:13:26","AMMA06",72188.000,"cc",28359.197,6.00,2835.920,1,6,0.100,35720.000,0.200,27832.000,0.300,5585.000,0.500,1903.000,1.000,1146.000,5.000,2.000
"07/03/06","10:13:32","AMMA06",71478.000,"cc",28288.904,6.00,2828.891,1,6,0.100,35680.000,0.200,27284.000,0.300,5455.000,0.500,1898.000,1.000,1160.000,5.000,1.000
"07/03/06","10:13:38","AMMA06",72029.000,"cc",28295.408,6.00,2829.541,1,6,0.100,35952.000,0.200,27525.000,0.300,5523.000,0.500,1862.000,1.000,1167.000,5.000,0
"07/03/06","10:13:44","AMMA06",72128.000,"cc",28375.104,6.00,2837.511,1,6,0.100,35920.000,0.200,27639.000,0.300,5511.000,0.500,1886.000,1.000,1171.000,5.000,1.000
"07/03/06","10:13:50","AMMA06",70839.000,"cc",28304.141,6.00,2830.414,1,6,0.100,35445.000,0.200,26999.000,0.300,5414.000,0.500,1838.000,1.000,1142.000,5.000,1.000